Weather History for KMRF - May, 2013

Change the Weather History Date:

Monday, May 13, 2013

  Actual Average Record
Temperature  
Mean Temperature 56 °F -  
Max Temperature 75 °F 81 °F 96 °F (2003)
Min Temperature 37 °F 49 °F 37 °F (2013)
Degree Days  
Heating Degree Days 9    
Growing Degree Days 6 (Base 50)    
Moisture  
Dew Point 37 °F    
Average Humidity 48    
Maximum Humidity 75    
Minimum Humidity 29    
Precipitation  
Precipitation 0.00 in - - ()
Sea Level Pressure  
Sea Level Pressure 30.31 in    
Wind  
Wind Speed 7 mph (ESE)    
Max Wind Speed 14 mph    
Max Gust Speed 28 mph    
Visibility 10 miles    
Events      
Averages and records for this station are not official NWS values.
T = Trace of Precipitation, MM = Missing Value Source: NWS Daily Summary

Daily Weather History Graph

Daily Weather History Graph

Search for Another Location

Airport or City:

Trip Planner

Search our weather history database for the weather conditions in past years. The results will help you decide how hot, cold, wet, or windy it might be!

Date:

Astronomy

May. 13, 2013 Rise Set
Actual Time 7:03 AM CDT 8:42 PM CDT
Civil Twilight 6:36 AM CDT 9:08 PM CDT
Nautical Twilight 6:05 AM CDT 9:39 PM CDT
Astronomical Twilight 5:32 AM CDT 10:13 PM CDT
Moon 9:52 AM CDT (5/13) 11:52 PM CDT (5/13)
Length of Visible Light 14h 31m
Length of Day
13h 39m
Waxing Crescent, 12% of the Moon is Illuminated
May 13
Waxing Crescent
May 17
First Quarter
May 24
Full
May 31
Last Quarter
Jun 8
New

Hourly Weather History & Observations

Time (CDT) Temp. Windchill Dew Point Humidity Pressure Visibility Wind Dir Wind Speed Gust Speed Precip Events Conditions
12:15 AM 51.8 °F - 33.8 °F 50% 30.33 in 10.0 mi East 8.1 mph - N/A   Clear
12:35 AM 50.0 °F - 33.8 °F 54% 30.33 in 10.0 mi East 6.9 mph - N/A   Clear
12:55 AM 48.2 °F - 33.8 °F 58% 30.34 in 10.0 mi NE 4.6 mph - N/A   Clear
1:15 AM 51.8 °F - 33.8 °F 50% 30.34 in 10.0 mi NE 6.9 mph - N/A   Clear
1:35 AM 50.0 °F - 33.8 °F 54% 30.34 in 10.0 mi NE 6.9 mph - N/A   Clear
1:55 AM 48.2 °F - 33.8 °F 58% 30.34 in 10.0 mi NE 6.9 mph - N/A   Clear
2:15 AM 46.4 °F 42.4 °F 33.8 °F 62% 30.34 in 10.0 mi ENE 8.1 mph - N/A   Clear
2:35 AM 44.6 °F 42.2 °F 32.0 °F 61% 30.34 in 10.0 mi NE 4.6 mph - N/A   Clear
2:55 AM 42.8 °F 39.3 °F 30.2 °F 61% 30.33 in 10.0 mi NNE 5.8 mph - N/A   Clear
3:15 AM 42.8 °F 38.6 °F 32.0 °F 66% 30.33 in 10.0 mi North 6.9 mph - N/A   Clear
3:35 AM 44.6 °F 40.2 °F 32.0 °F 61% 30.33 in 10.0 mi NNE 8.1 mph - N/A   Clear
3:55 AM 44.6 °F 39.7 °F 33.8 °F 66% 30.33 in 10.0 mi NNE 9.2 mph - N/A   Clear
4:15 AM 44.6 °F 39.7 °F 33.8 °F 66% 30.32 in 10.0 mi North 9.2 mph - N/A   Clear
4:35 AM 42.8 °F 38.0 °F 33.8 °F 70% 30.33 in 10.0 mi North 8.1 mph - N/A   Clear
4:55 AM 42.8 °F 37.5 °F 33.8 °F 70% 30.32 in 10.0 mi NNE 9.2 mph - N/A   Clear
5:15 AM 42.8 °F 39.3 °F 33.8 °F 70% 30.32 in 10.0 mi NE 5.8 mph - N/A   Clear
5:35 AM 42.8 °F 41.1 °F 33.8 °F 70% 30.32 in 10.0 mi NE 3.5 mph - N/A   Clear
5:55 AM 39.2 °F - 30.2 °F 70% 30.32 in 10.0 mi Calm Calm - N/A   Clear
6:15 AM 39.2 °F - 30.2 °F 70% 30.31 in 10.0 mi Calm Calm - N/A   Clear
6:35 AM 37.4 °F 33.8 °F 30.2 °F 75% 30.32 in 10.0 mi NNE 4.6 mph - N/A   Clear
6:55 AM 42.8 °F 40.1 °F 32.0 °F 66% 30.32 in 10.0 mi NE 4.6 mph - N/A   Clear
7:15 AM 37.4 °F - 28.4 °F 70% 30.33 in 10.0 mi Calm Calm - N/A   Clear
7:35 AM 39.2 °F 35.9 °F 32.0 °F 75% 30.34 in 10.0 mi NNW 4.6 mph - N/A   Clear
7:55 AM 44.6 °F 43.1 °F 35.6 °F 71% 30.34 in 10.0 mi North 3.5 mph - N/A   Clear
8:15 AM 48.2 °F - 35.6 °F 62% 30.35 in 10.0 mi NNE 3.5 mph - N/A   Clear
8:35 AM 53.6 °F - 35.6 °F 51% 30.34 in 10.0 mi East 3.5 mph - N/A   Clear
8:55 AM 55.4 °F - 37.4 °F 51% 30.35 in 10.0 mi ESE 5.8 mph - N/A   Clear
9:15 AM 57.2 °F - 35.6 °F 44% 30.35 in 10.0 mi SSE 4.6 mph - N/A   Clear
9:35 AM 57.2 °F - 37.4 °F 48% 30.36 in 10.0 mi SE 3.5 mph - N/A   Clear
9:55 AM 59.0 °F - 37.4 °F 45% 30.36 in 10.0 mi South 3.5 mph - N/A   Clear
10:15 AM 60.8 °F - 37.4 °F 42% 30.36 in 10.0 mi South 3.5 mph - N/A   Clear
10:35 AM 60.8 °F - 37.4 °F 42% 30.36 in 10.0 mi South 3.5 mph - N/A   Clear
10:55 AM 62.6 °F - 37.4 °F 39% 30.36 in 10.0 mi South 4.6 mph - N/A   Clear
11:15 AM 62.6 °F - 37.4 °F 39% 30.36 in 10.0 mi SSW 5.8 mph - N/A   Clear
11:35 AM 64.4 °F - 37.4 °F 37% 30.36 in 10.0 mi SSE 5.8 mph - N/A   Clear
11:55 AM 64.4 °F - 37.4 °F 37% 30.35 in 10.0 mi SSW 4.6 mph - N/A   Clear
12:15 PM 66.2 °F - 37.4 °F 35% 30.35 in 10.0 mi SSE 5.8 mph - N/A   Clear
12:35 PM 68.0 °F - 37.4 °F 33% 30.35 in 10.0 mi Calm Calm - N/A   Clear
12:55 PM 68.0 °F - 37.4 °F 33% 30.34 in 10.0 mi SSE 8.1 mph - N/A   Clear
1:15 PM 69.8 °F - 37.4 °F 31% 30.34 in 10.0 mi SSE 9.2 mph - N/A   Clear
1:35 PM 71.6 °F - 39.2 °F 31% 30.32 in 10.0 mi South 8.1 mph 16.1 mph N/A   Clear
1:55 PM 71.6 °F - 39.2 °F 31% 30.32 in 10.0 mi ESE 3.5 mph 17.3 mph N/A   Clear
2:15 PM 71.6 °F - 39.2 °F 31% 30.31 in 10.0 mi SSE 10.4 mph 17.3 mph N/A   Clear
2:35 PM 71.6 °F - 39.2 °F 31% 30.30 in 10.0 mi SSE 10.4 mph 17.3 mph N/A   Scattered Clouds
3:35 PM 73.4 °F - 42.8 °F 33% 30.29 in 10.0 mi SE 10.4 mph 19.6 mph N/A   Mostly Cloudy
3:55 PM 73.4 °F - 42.8 °F 33% 30.28 in 10.0 mi South 4.6 mph - N/A   Scattered Clouds
4:15 PM 75.2 °F - 41.0 °F 29% 30.27 in 10.0 mi South 8.1 mph 17.3 mph N/A   Mostly Cloudy
4:35 PM 75.2 °F - 41.0 °F 29% 30.27 in 10.0 mi ESE 11.5 mph 17.3 mph N/A   Scattered Clouds
4:55 PM 73.4 °F - 41.0 °F 31% 30.26 in 10.0 mi SE 10.4 mph 16.1 mph N/A   Scattered Clouds
5:15 PM 75.2 °F - 41.0 °F 29% 30.25 in 10.0 mi SE 12.7 mph 25.3 mph N/A   Mostly Cloudy
5:35 PM 75.2 °F - 41.0 °F 29% 30.24 in 10.0 mi SE 11.5 mph 18.4 mph N/A   Partly Cloudy
5:55 PM 75.2 °F - 42.8 °F 31% 30.24 in 10.0 mi ESE 13.8 mph 17.3 mph N/A   Scattered Clouds
6:35 PM 71.6 °F - 41.0 °F 33% 30.24 in 10.0 mi SE 12.7 mph - N/A   Partly Cloudy
7:15 PM 73.4 °F - 41.0 °F 31% 30.23 in 10.0 mi SSE 10.4 mph 27.6 mph N/A   Scattered Clouds
7:35 PM 71.6 °F - 42.8 °F 35% 30.22 in 10.0 mi SE 13.8 mph 21.9 mph N/A   Scattered Clouds
7:55 PM 71.6 °F - 42.8 °F 35% 30.23 in 10.0 mi SE 13.8 mph - N/A   Partly Cloudy
8:15 PM 69.8 °F - 41.0 °F 35% 30.23 in 10.0 mi SE 12.7 mph - N/A   Partly Cloudy
8:35 PM 68.0 °F - 42.8 °F 40% 30.23 in 10.0 mi SE 6.9 mph - N/A   Clear
8:55 PM 66.2 °F - 41.0 °F 40% 30.24 in 10.0 mi ESE 8.1 mph - N/A   Clear
9:15 PM 64.4 °F - 41.0 °F 42% 30.24 in 10.0 mi ESE 9.2 mph - N/A   Clear
9:35 PM 64.4 °F - 42.8 °F 45% 30.25 in 10.0 mi SE 9.2 mph - N/A   Clear
9:55 PM 62.6 °F - 41.0 °F 45% 30.26 in 10.0 mi ESE 8.1 mph - N/A   Clear
10:15 PM 60.8 °F - 39.2 °F 45% 30.26 in 10.0 mi East 6.9 mph - N/A   Clear
10:35 PM 60.8 °F - 39.2 °F 45% 30.26 in 10.0 mi East 8.1 mph - N/A   Clear
10:55 PM 59.0 °F - 39.2 °F 48% 30.27 in 10.0 mi East 8.1 mph - N/A   Clear
11:15 PM 60.8 °F - 42.8 °F 52% 30.27 in 10.0 mi East 9.2 mph - N/A   Clear
11:35 PM 62.6 °F - 44.6 °F 52% 30.28 in 10.0 mi East 10.4 mph - N/A   Clear
11:55 PM 62.6 °F - 44.6 °F 52% 30.28 in 10.0 mi ESE 9.2 mph - N/A   Clear